Flag for Canada Weather past 2 weeks in Dauphin, Manitoba, Canada

Now
12 °F

Light snow. Overcast.


Feels Like: 4 °F
Forecast: -1 / 10 °F
Wind: 5 mph from Northwest

Location: Dauphin

Current Time: Jan 28, 2015 at 10:47:35 PM

Latest Report: Jan 28, 2015 at 10:00 PM


Visibility: 9 mi

Pressure: 30.31 "Hg

Humidity: 85%

Dew point: 9 °F

Location of DauphinLocation

Historic Weather in Dauphin — Graph

°F

Dauphin temperature yesterday

Maximum temperature yesterday: 36 °F (at 8:00 AM)
Minimum temperature yesterday: 25 °F (at 9:00 PM)
Average temperature yesterday: 30 °F

Past Weeks' High & Low Weather Summary

 TemperatureHumidityPressure
High41 °F (Jan 22, 3:00 PM)100% (Jan 18, 5:00 AM)30.35 "Hg (Jan 18, 5:00 AM)
Low1 °F (Jan 15, 11:00 PM)65% (Jan 22, 11:00 AM)29.40 "Hg (Jan 17, 1:00 AM)
Average21 °F86%29.93 "Hg
* Reported Jan 13 10:00 PM — Jan 28 10:00 PM, Dauphin, Weather by CustomWeather, © 2014

Note: Actual official high and low records may vary slightly from our data, if they occured in-between our weather recording intervals... More about our weather records

Advertising

Dauphin weather history for previous 24 hours

 ConditionsComfort  
Time TempWeatherWind HumidityBarometerVisibility
10:00 PM
Jan 28
12 °FLight snow. Overcast.5 mph85%30.31 "Hg9 mi
9:00 PM12 °FLight snow. Overcast.6 mph85%30.28 "Hg5 mi
8:58 PM12 °FLight snow. Overcast.6 mph85%30.28 "Hg5 mi
8:00 PM12 °FOvercast.7 mph85%30.25 "Hg9 mi
7:00 PM12 °FOvercast.6 mph85%30.23 "Hg9 mi
6:00 PM12 °FOvercast.5 mph92%30.19 "Hg9 mi
5:00 PM14 °FOvercast.8 mph85%30.15 "Hg9 mi
4:00 PM14 °FLight snow. Overcast.7 mph85%30.13 "Hg9 mi
3:00 PM14 °FLight snow. Overcast.7 mph85%30.11 "Hg3 mi
2:57 PM14 °FLight snow. Overcast.8 mph85%30.11 "Hg3 mi
2:00 PM16 °FLight snow. Overcast.9 mph86%30.10 "Hg1 mi
1:00 PM14 °FLight snow. Overcast.10 mph85%30.10 "Hg1 mi
12:03 PM14 °FLight snow. Overcast.10 mph85%30.08 "Hg2 mi
11:03 AM14 °FLight snow. Mostly cloudy.8 mph85%30.06 "Hg2 mi
10:03 AM14 °FLight snow. Overcast.10 mph92%30.05 "Hg2 mi
9:00 AM14 °FLight snow. Ice fog.12 mph92%30.04 "Hg1 mi
8:00 AM16 °FLight snow. Overcast.13 mph93%30.03 "Hg1 mi
7:00 AM18 °FLight snow. Mostly cloudy.17 mph93%30.00 "Hg2 mi
6:52 AM18 °FLight snow. Mostly cloudy.16 mph93%30.00 "Hg2 mi
6:00 AM19 °FLight snow. Overcast.17 mph100%29.99 "Hg9 mi
5:58 AM19 °FLight snow. Overcast.17 mph100%29.99 "Hg9 mi
5:00 AM23 °FLow clouds.15 mph100%29.98 "Hg9 mi
4:59 AM23 °FLow clouds.16 mph100%29.98 "Hg9 mi
4:00 AM23 °FLight freezing rain. Ice fog.14 mph100%29.98 "Hg1 mi
3:00 AM23 °FSnow. Ice fog.12 mph100%29.98 "Hg1 mi
2:00 AM23 °FLight freezing rain. Ice fog.12 mph100%29.98 "Hg1 mi
1:00 AM23 °FIce fog.10 mph100%30.00 "Hg1 mi
12:45 AM23 °FIce fog.16 mph100%30.00 "Hg1 mi
12:00 AM23 °FLow clouds.15 mph100%30.00 "Hg9 mi
11:00 PM
Jan 27
25 °FOvercast.15 mph93%29.98 "Hg9 mi
10:00 PM25 °FOvercast.14 mph93%29.99 "Hg9 mi
Weather by CustomWeather, © 2014

See weather overviewHow to use our weather pages